#timestamp,LO_Frequency,Hit,StdDev 
1587808815.1,286047001.7,N
1587808816.0,286047001.7,N
1587808835.8,286047003.9,N
1587808855.6,286047001.3,N
1587808875.5,286047004.3,N
1587808895.3,286047003.4,N
1587808915.2,286047005.5,N
1587808935.9,286047007.1,N
1587808955.7,286047005.1,N
1587808975.6,286047004.1,N
1587808995.4,286047001.7,N
1587809015.3,286047005.6,N
1587809035.1,286047007.0,N
1587809036.0,286047007.0,N
1587809055.8,286047007.4,N
1587809075.7,286047007.4,N
1587809095.5,286047006.5,N
1587809115.4,286047008.6,Y
1587809135.2,286047002.5,P
1587809155.0,286046998.2,N
1587809155.9,286046998.2,N
1587809175.8,286046998.7,N
1587809195.6,286047001.2,N
1587809215.5,286047002.7,N
1587809235.3,286047000.8,N
1587809255.1,286046999.3,N
1587809275.9,286046999.2,N
1587809295.7,286046997.3,N
1587809315.5,286046994.9,N
1587809335.4,286046999.0,N
1587809355.2,286046997.8,N
1587809375.1,286046997.4,N
1587809376.0,286046997.4,N
1587809395.8,286046998.9,N
1587809415.6,286047000.5,N
1587809435.5,286047001.8,N
1587809455.3,286047001.9,N
1587809475.2,286047003.2,N
1587809495.9,286047002.2,N
1587809515.7,286047001.2,N
1587809535.6,286047000.7,N
1587809555.4,286047002.8,N
1587809575.2,286047001.6,N
1587809595.1,286047000.4,N
1587809596.0,286047000.4,N
1587809615.8,286047000.1,N
1587809635.7,286047000.5,N
1587809655.5,286047001.1,N
1587809675.3,286046998.4,N
1587809695.2,286047000.8,N
1587809715.0,286046998.4,N
1587809715.9,286046998.4,N
1587809735.8,286046998.8,N
1587809755.6,286046997.8,N
1587809775.4,286046999.0,N
1587809795.3,286046998.6,N
1587809815.1,286046999.4,N
1587809835.8,286046996.6,N
1587809855.7,286046996.7,N
1587809875.5,286046999.2,N
1587809895.4,286046996.3,N
1587809915.2,286046993.6,Y
1587809935.0,286046998.0,P
1587809935.9,286046998.0,N
1587809955.8,286046994.9,P
1587809975.6,286046993.4,Y
1587809995.5,286046999.6,P
1587810015.3,286047000.4,N
1587810035.1,286047002.0,N
1587810055.9,286047002.8,N
1587810075.7,286047001.0,N
1587810095.6,286046998.7,N
1587810115.4,286046997.2,N
1587810135.2,286046997.6,N
1587810155.1,286046997.5,N
1587810156.0,286046997.5,N
1587810175.8,286046995.5,N
1587810195.7,286046996.3,N
1587810215.5,286046993.6,N
1587810235.3,286046995.2,N
1587810255.2,286046995.2,N
1587810275.0,286046998.0,N
1587810275.9,286046998.0,N
1587810295.7,286046997.3,N
1587810315.6,286046995.8,N
1587810335.4,286046995.4,N
1587810355.3,286046995.4,N
1587810375.1,286046999.4,N
1587810376.0,286046999.4,N
1587810395.8,286046996.6,N
1587810415.7,286046998.2,N
1587810435.5,286046996.6,N
1587810455.4,286046998.9,N
1587810475.2,286046999.8,N
1587810495.0,286047002.1,N
1587810495.9,286047002.1,N
1587810515.8,286047001.1,N
1587810535.6,286046998.9,N
1587810555.4,286046999.2,N
1587810575.3,286046998.5,N
1587810595.1,286047000.5,N
1587810615.9,286047002.1,N
1587810635.7,286047002.8,N
1587810655.5,286047002.8,N
1587810675.4,286046998.2,N
1587810695.2,286047001.1,N
1587810715.1,286046999.7,N
1587810716.0,286046999.7,N
1587810735.8,286047002.5,N
1587810755.6,286047002.6,N
1587810775.5,286047000.4,N
1587810795.3,286047000.7,N
1587810815.1,286047000.2,N
1587810835.9,286047000.0,N
1587810855.7,286047000.5,N
1587810875.6,286047002.4,N
1587810895.4,286047000.6,N
1587810915.2,286047002.8,N
1587810935.1,286047002.5,N
1587810936.0,286047002.5,N
1587810955.8,286047000.7,N
1587810975.7,286047002.2,N
1587810995.5,286046998.1,N
1587811015.3,286046996.6,N
1587811035.2,286046995.1,Y
1587811055.0,286046994.8,P
1587811055.9,286046994.8,N
1587811075.8,286046994.1,N
1587811095.6,286046992.1,N
1587811115.4,286046992.6,N
1587811135.3,286046995.6,N
1587811155.1,286046990.7,Y
1587811175.9,286046995.2,P
1587811195.7,286046994.9,P
1587811215.5,286046997.7,P
1587811235.4,286047000.9,N
1587811255.2,286047002.4,N
1587811275.0,286047003.1,N
1587811275.9,286047003.1,N
1587811295.8,286047006.0,N
1587811315.6,286047004.9,N
1587811335.5,286047005.5,N
1587811355.3,286047001.7,N
1587811375.1,286047002.0,N
1587811395.9,286047004.3,N
1587811415.7,286047001.5,N
1587811435.6,286047003.8,N
1587811455.4,286047002.7,N
1587811475.2,286047002.1,N
1587811495.1,286047004.4,N
1587811496.0,286047004.4,N
1587811515.8,286047002.7,N
1587811535.6,286047002.1,N
1587811555.5,286047003.2,N
1587811575.3,286047005.0,N
1587811595.2,286047005.3,N
1587811615.9,286047003.1,N
1587811635.7,286047004.9,N
1587811655.6,286047006.6,N
1587811675.4,286047007.4,N
1587811695.3,286047009.0,N
1587811715.1,286047006.5,N
1587811716.0,286047006.5,N
1587811735.8,286047008.8,Y
1587811755.7,286047004.8,P
1587811775.5,286047001.3,N
1587811795.3,286047005.8,P
1587811815.2,286047004.3,N
1587811835.0,286047002.5,N
1587811835.9,286047002.5,N
1587811855.8,286046998.6,N
1587811875.6,286046999.9,N
1587811895.4,286047001.0,N
1587811915.3,286046998.2,N
1587811935.1,286047001.2,N
1587811955.9,286046997.3,N
1587811975.7,286047000.8,N
1587811995.5,286046999.4,N
1587812015.4,286046998.6,N
1587812035.2,286046997.6,N
1587812055.0,286047002.4,N
1587812055.9,286047002.4,N
1587812075.8,286047003.9,N
1587812095.6,286047002.3,N
1587812115.5,286047000.5,N
1587812135.3,286046998.9,N
1587812155.1,286046998.5,N
1587812175.9,286047000.6,N
1587812195.7,286046997.1,N
1587812215.6,286047000.7,N
1587812235.4,286047000.8,N
1587812255.2,286047000.6,N
1587812275.1,286046998.4,N
1587812276.0,286046998.4,N
1587812295.8,286046996.7,N
1587812315.6,286046996.8,N
1587812335.5,286046996.1,N
1587812355.3,286046996.7,N
1587812375.2,286046999.6,N
1587812395.9,286047000.9,N
